Regional Weather Roundup
Issued by NWS Midland/Odessa, TX

Skip options and go directly to product.
Home | Oldest Version | Previous Version | Current Version | All | Text Only | Save Text | Print | Product List | Glossary On

Skip product version selection by date and time.   
602
ASUS44 KMAF 260010
RWRMAF
MIDLAND AREA WEATHER ROUNDUP
NATIONAL WEATHER SERVICE MIDLAND TX
700 PM CDT SAT JUN 25 2016

...IN SOUTHWEST TEXAS AND SOUTHEAST NEW MEXICO...

CITY           SKY/WX    TMP DP  RH WIND       PRES   REMARKS
ALPINE         CLOUDY    80  54  40 SE21G30   30.09R
ANDREWS        FAIR      91  57  31 S17       29.96F
ARTESIA        CLOUDY    81  61  50 W16G23    29.97R THUNDER
BIG SPRING     CLOUDY    83  62  49 E12       29.98S
CARLSBAD       SUNNY     95  47  19 E9        29.90F
DRYDEN           N/A     93  64  38 SE26G35   29.90F
FORT STOCKTON  CLOUDY    89  60  37 SE20G31   29.94R
GUAD PASS      CLOUDY    85  43  22 E16         N/A
HOBBS          MOSUNNY   91  54  27 E18       29.98F
MARFA          MOSUNNY  N/A N/A N/A E26G32    30.06R
MIDLAND AIRPK  MOSUNNY   92  56  29 SE15G25   29.96S
MIDLAND INTL   MOSUNNY   93  57  29 SE21G29   29.95S
ODESSA         MOSUNNY   92  57  30 S20       29.96S
PECOS          PTSUNNY   87  58  36 S13G32    29.89R HAZE
PRESIDIO       FAIR      96  53  23 NE16G22   29.86R THUNDER
SEMINOLE       CLOUDY    89  58  34 SE17      29.99S
SNYDER           N/A     82  66  59 SE12      29.99F
WINK           SUNNY     94  58  29 SE21G28   29.89S
$$
...OTHER STATIONS IN TEXAS...

CITY           SKY/WX    TMP DP  RH WIND       PRES   REMARKS
ABILENE        CLOUDY    83  69  62 S15G23    29.99S
AMARILLO       SUNNY     91  55  29 S23G30    29.96F
AUSTIN         LGT RAIN  79  77  94 S8        30.01S
BROWNSVILLE    MOSUNNY   87  76  69 SE15      29.97S
CORPUS CHRISTI CLOUDY    85  77  77 SE14      29.98S
DALLAS FTW     CLOUDY    90  71  53 S16       29.97F
DEL RIO        MOSUNNY   94  68  42 SE15G25   29.88S
EL PASO        CLOUDY    87  51  28 E21G29    29.95S
HOUSTON INT    PTSUNNY   85  77  77 CALM      30.01S
LUBBOCK        MOSUNNY   90  61  37 S18G28    29.97F
SAN ANGELO     MOSUNNY   91  66  43 SE18G29   29.96R
SAN ANTONIO    CLOUDY    78  74  87 E5        30.00F
WACO           CLOUDY    86  71  60 S13       30.01S
WICHITA FALLS  NOT AVBL
$$
...OTHER LOCATIONS IN NEW MEXICO...

CITY           SKY/WX    TMP DP  RH WIND       PRES   REMARKS
ALAMAGORDO     CLOUDY    90  46  22 S12       29.97F
ALBUQUERQUE    CLOUDY    90  37  15 VRB6      30.05F
CANNON AFB     SUNNY     90  54  28 S20G26    29.98F
CLOVIS         SUNNY     91  54  27 S18G28    29.99F
HOLLOMAN AFB   MOSUNNY   91  47  21 S17       29.94F
ROSWELL        CLOUDY    83  60  45 S12       29.96S THUNDER
RUIDOSO          N/A     75  39  27 SW5       30.23S
SANTA FE       CLOUDY    83  35  18 N18G24    30.14S
TRUTH OR CONSE CLOUDY    83  49  30 NW21      30.01R
TUCUMCARI      SUNNY     93  53  25 S16       29.91F
$$

USA.gov is the U.S. government's official web portal to all federal, state and local government web resources and services.